Change the Weather History Date:

Thursday, January 10, 2013

  Actual Average (KBAD) Record (KBAD)
Temperature  
Mean Temperature 61 °F -  
Max Temperature 68 °F 54 °F 71 °F (2000)
Min Temperature 52 °F 36 °F 24 °F (1997)
Degree Days  
Heating Degree Days 4    
Growing Degree Days 11 (Base 50)    
Moisture  
Dew Point 58 °F    
Average Humidity 85    
Maximum Humidity 94    
Minimum Humidity 67    
Precipitation  
Precipitation 0.04 in - - ()
Sea Level Pressure  
Sea Level Pressure 29.99 in    
Wind  
Wind Speed 6 mph (SSE)    
Max Wind Speed 17 mph    
Max Gust Speed 26 mph    
Visibility 10 miles    
Events Rain    
Averages and records for this station are not official NWS values.
T = Trace of Precipitation, MM = Missing Value Source: NWS Daily Summary

Daily Weather History Graph

Daily Weather History Graph

Search for Another Location

Airport or City:

Trip Planner

Search our weather history database for the weather conditions in past years. The results will help you decide how hot, cold, wet, or windy it might be!

Date:

Astronomy

Jan. 10, 2013 Rise Set
Actual Time 7:16 AM CST 5:25 PM CST
Civil Twilight 6:49 AM CST 5:52 PM CST
Nautical Twilight 6:18 AM CST 6:23 PM CST
Astronomical Twilight 5:49 AM CST 6:52 PM CST
Moon 5:56 AM CST (1/10) 4:33 PM CST (1/10)
Length of Visible Light 11h 03m
Length of Day
10h 09m
Waning Crescent, 2% of the Moon is Illuminated
Jan 10
Waning Crescent
Jan 11
New
Jan 18
First Quarter
Jan 26
Full
Feb 3
Last Quarter

Hourly Weather History & Observations

Time (CST) Temp. Dew Point Humidity Pressure Visibility Wind Dir Wind Speed Gust Speed Precip Events Conditions
12:15 AM 60.8 °F 58.5 °F 92% 30.05 in 10.0 mi ENE 6.9 mph - N/A   Overcast
2:15 AM 59.9 °F 58.1 °F 94% 30.08 in 10.0 mi Calm Calm - N/A   Overcast
2:35 AM 59.9 °F 57.7 °F 93% 30.07 in 7.0 mi North 3.5 mph - N/A   Overcast
2:55 AM 59.7 °F 57.7 °F 93% 30.07 in 7.0 mi Calm Calm - N/A   Overcast
3:15 AM 59.9 °F 58.1 °F 94% 30.05 in 10.0 mi East 3.5 mph - N/A   Overcast
3:55 AM 61.2 °F 59.4 °F 94% 30.04 in 10.0 mi ESE 4.6 mph - N/A   Mostly Cloudy
4:15 AM 63.3 °F 61.2 °F 93% 30.02 in 10.0 mi SE 8.1 mph - N/A Rain Light Rain
4:35 AM 64.2 °F 61.3 °F 90% 30.05 in 10.0 mi Calm Calm - N/A Rain Light Rain
4:55 AM 64.4 °F 61.3 °F 90% 30.05 in 10.0 mi SSE 3.5 mph - N/A Rain Light Rain
5:15 AM 64.4 °F 61.7 °F 91% 30.04 in 10.0 mi SE 8.1 mph - 0.01 in Rain Light Rain
5:35 AM 64.4 °F 61.2 °F 89% 30.03 in 10.0 mi SE 9.2 mph 17.3 mph 0.01 in Rain Light Rain
5:55 AM 64.0 °F 61.0 °F 90% 29.99 in 10.0 mi ESE 16.1 mph 23.0 mph 0.02 in Rain Light Rain
6:15 AM 63.9 °F 60.8 °F 90% 29.99 in 10.0 mi SE 17.3 mph 26.5 mph 0.01 in Rain Light Rain
6:55 AM 63.5 °F 60.1 °F 89% 29.96 in 10.0 mi ESE 17.3 mph 25.3 mph 0.02 in Rain Light Rain
7:15 AM 63.5 °F 59.9 °F 88% 29.97 in 10.0 mi East 10.4 mph 19.6 mph N/A Rain Light Rain
7:35 AM 63.0 °F 59.2 °F 87% 29.96 in 10.0 mi ESE 8.1 mph - N/A Rain Light Rain
7:55 AM 62.2 °F 59.0 °F 89% 29.99 in 10.0 mi West 6.9 mph - N/A   Scattered Clouds
8:15 AM 62.1 °F 59.4 °F 91% 30.01 in 10.0 mi WSW 4.6 mph - N/A   Mostly Cloudy
8:35 AM 62.1 °F 59.4 °F 91% 30.01 in 10.0 mi Calm Calm - N/A   Overcast
9:15 AM 62.6 °F 60.1 °F 91% 30.04 in 10.0 mi Calm Calm - N/A   Mostly Cloudy
9:55 AM 63.5 °F 60.8 °F 91% 30.04 in 10.0 mi South 4.6 mph - N/A   Overcast
10:15 AM 63.7 °F 60.8 °F 90% 30.04 in 10.0 mi South 4.6 mph - N/A   Overcast
10:35 AM 64.4 °F 60.8 °F 88% 30.03 in 10.0 mi South 3.5 mph - N/A   Overcast
10:55 AM 64.4 °F 60.8 °F 88% 30.03 in 10.0 mi SE 5.8 mph - N/A   Overcast
11:15 AM 64.4 °F 60.8 °F 88% 30.03 in 10.0 mi SSE 4.6 mph - N/A   Overcast
11:35 AM 64.8 °F 60.8 °F 87% 30.02 in 10.0 mi SE 5.8 mph - N/A   Overcast
11:55 AM 65.3 °F 61.0 °F 86% 30.01 in 10.0 mi SE 9.2 mph - N/A   Overcast
12:15 PM 65.3 °F 60.8 °F 85% 29.99 in 10.0 mi SSE 8.1 mph - N/A   Overcast
12:35 PM 65.3 °F 60.6 °F 85% 29.97 in 10.0 mi SE 12.7 mph 17.3 mph N/A   Overcast
12:55 PM 65.1 °F 60.6 °F 85% 29.95 in 10.0 mi SSE 12.7 mph - N/A   Overcast
1:15 PM 65.8 °F 61.0 °F 84% 29.94 in 10.0 mi SSE 8.1 mph - N/A   Overcast
1:35 PM 65.8 °F 60.8 °F 84% 29.95 in 10.0 mi SSE 6.9 mph - N/A   Overcast
1:55 PM 65.7 °F 60.4 °F 83% 29.93 in 10.0 mi SSE 8.1 mph - N/A   Overcast
2:35 PM 66.2 °F 60.3 °F 81% 29.92 in 10.0 mi South 9.2 mph - N/A   Overcast
2:55 PM 66.2 °F 60.1 °F 81% 29.92 in 10.0 mi South 5.8 mph - N/A   Overcast
3:15 PM 66.2 °F 59.9 °F 80% 29.93 in 10.0 mi South 11.5 mph - N/A   Overcast
3:35 PM 68.2 °F 58.5 °F 71% 29.93 in 10.0 mi SSW 9.2 mph 18.4 mph N/A   Overcast
3:55 PM 67.6 °F 57.2 °F 69% 29.92 in 10.0 mi South 10.4 mph 16.1 mph N/A   Mostly Cloudy
4:15 PM 66.7 °F 56.7 °F 70% 29.93 in 10.0 mi SSW 12.7 mph 19.6 mph N/A   Scattered Clouds
4:35 PM 67.1 °F 55.9 °F 67% 29.94 in 10.0 mi South 13.8 mph 17.3 mph N/A   Clear
4:55 PM 66.4 °F 56.3 °F 70% 29.94 in 10.0 mi South 5.8 mph - N/A   Scattered Clouds
5:15 PM 65.3 °F 56.3 °F 73% 29.94 in 10.0 mi South 6.9 mph - N/A   Scattered Clouds
5:35 PM 63.9 °F 55.8 °F 75% 29.94 in 10.0 mi South 6.9 mph - N/A   Scattered Clouds
5:55 PM 63.3 °F 55.4 °F 75% 29.95 in 10.0 mi South 5.8 mph - N/A   Clear
6:15 PM 62.6 °F 55.0 °F 76% 29.96 in 10.0 mi South 5.8 mph - N/A   Clear
6:35 PM 61.9 °F 54.9 °F 78% 29.97 in 10.0 mi South 4.6 mph - N/A   Clear
6:55 PM 61.0 °F 54.9 °F 80% 29.97 in 10.0 mi South 4.6 mph - N/A   Clear
7:15 PM 60.1 °F 54.5 °F 82% 29.98 in 10.0 mi SSW 3.5 mph - N/A   Clear
7:35 PM 59.5 °F 54.1 °F 82% 29.99 in 10.0 mi Calm Calm - N/A   Clear
7:55 PM 59.4 °F 53.6 °F 81% 29.99 in 10.0 mi South 3.5 mph - N/A   Clear
8:35 PM 59.0 °F 52.7 °F 80% 30.00 in 10.0 mi South 4.6 mph - N/A   Clear
8:55 PM 57.7 °F 52.2 °F 82% 30.00 in 10.0 mi SSW 4.6 mph - N/A   Clear
9:15 PM 57.7 °F 52.3 °F 82% 30.00 in 10.0 mi SSW 4.6 mph - N/A   Clear
9:35 PM 57.0 °F 52.2 °F 84% 30.01 in 10.0 mi SSW 3.5 mph - N/A   Clear
9:55 PM 55.9 °F 51.8 °F 86% 30.01 in 10.0 mi SSW 3.5 mph - N/A   Clear
10:15 PM 55.8 °F 51.8 °F 87% 30.02 in 10.0 mi SSW 3.5 mph - N/A   Clear
10:35 PM 54.9 °F 51.3 °F 88% 30.02 in 10.0 mi SW 3.5 mph - N/A   Clear
11:35 PM 54.0 °F 51.4 °F 91% 30.02 in 10.0 mi Calm Calm - N/A   Clear
11:55 PM 52.7 °F 50.0 °F 91% 30.02 in 10.0 mi Calm Calm - N/A   Clear